Regional Weather Roundup
Issued by NWS

Home | Current Version | Previous Version | Graphics & Text | Print | Product List | Glossary On
Versions: 1 2 3 4 5 6 7 8 9 10 11 12 13 14 15 16 17 18 19 20 21 22 23 24 25 26 27 28 29 30 31 32 33 34 35 36 37 38 39 40 41 42 43 44 45 46 47 48 49 50
000
ASUS45 KCYS 271810
RWRWY

WYOMING REGIONAL WEATHER ROUNDUP
NATIONAL WEATHER SERVICE CHEYENNE WY
1200 PM MDT THU JUL 27 2017

NOTE:  "FAIR" INDICATES FEW OR NO CLOUDS BELOW 12,000 FEET
WITH NO SIGNIFICANT WEATHER AND/OR OBSTRUCTIONS TO VISIBILITY.

WYZ001-271900-
YELLOWSTONE NATIONAL PARK

CITY           SKY/WX    TMP DP  RH WIND       PRES   REMARKS
LK YELLOWSTONE   N/A     61  52  72 VRB3      30.39F
6HR MIN TEMP:  43; 6HR MAX TEMP:  63;

W YELLOWSTONE  NOT AVBL

$$
WYZ002>013-054>058-071-098>099-271900-
NORTHERN WYOMING

CITY           SKY/WX    TMP DP  RH WIND       PRES   REMARKS
JACKSON        PTSUNNY   66  52  59 SW5       30.32F
CODY           FAIR      83  44  25 SE3G16    30.15
GREYBULL       FAIR      84  47  27 E3        30.07F
6HR MIN TEMP:  65; 6HR MAX TEMP:  85;

WORLAND        FAIR      83  53  35 CALM      30.10F
6HR MIN TEMP:  59; 6HR MAX TEMP:  84;

SHERIDAN       PTSUNNY   79  56  45 NE6       30.10F
6HR MIN TEMP:  58; 6HR MAX TEMP:  82; 6HR PCP:  0.01;

BUFFALO        FAIR      82  54  37 N13G23    30.15F
6HR MIN TEMP:  58; 6HR MAX TEMP:  82;

GILLETTE       FAIR      87  57  35 SE17      30.07F
6HR MIN TEMP:  66; 6HR MAX TEMP:  87;

HULETT         FAIR      84  61  45 S20G26    30.10F
NEWCASTLE      FAIR      79  61  53 SE14G28   30.13F

$$
WYZ014>020-022>026-101>103-271900-
CENTRAL WYOMING

CITY           SKY/WX    TMP DP  RH WIND       PRES   REMARKS
BIG PINEY      FAIR      74  45  35 W5        30.33F
6HR MIN TEMP:  47; 6HR MAX TEMP:  75;

PINEDALE       FAIR      73  41  31 NW6       30.35S
DUBOIS         CLOUDY    70  37  30 W14       30.31S
LANDER         FAIR      80  50  34 S5        30.19F
6HR MIN TEMP:  58; 6HR MAX TEMP:  80;

RIVERTON       FAIR      81  45  28 W6        30.19F
6HR MIN TEMP:  57; 6HR MAX TEMP:  81;

CASPER         FAIR      83  56  39 SW14G21   30.16F
6HR MIN TEMP:  55; 6HR MAX TEMP:  83;

DOUGLAS        FAIR      82  56  40 CALM      30.16F
6HR MIN TEMP:  61; 6HR MAX TEMP:  83;


$$
WYZ021-027>030-104>119-271900-
SOUTHERN WYOMING

CITY           SKY/WX    TMP DP  RH WIND       PRES   REMARKS
EVANSTON       FAIR      75  49  39 W14G20    30.35F
6HR MIN TEMP:  51; 6HR MAX TEMP:  75;

KEMMERER         N/A     73  43  33 W13       30.36F
FORT BRIDGER   FAIR      78  44  29 W12G22    30.36F
ROCK SPRINGS   FAIR      77  46  33 W10G16    30.32F
6HR MIN TEMP:  58; 6HR MAX TEMP:  77;

RAWLINS        FAIR      78  52  40 SW13G23   30.30F
6HR MIN TEMP:  54; 6HR MAX TEMP:  78;

SARATOGA       FAIR      77  48  36 W13       30.33S
LARAMIE        FAIR      75  50  41 E8        30.33F
6HR MIN TEMP:  51; 6HR MAX TEMP:  76;

CHEYENNE       FAIR      76  57  51 S12       30.28F
6HR MIN TEMP:  58; 6HR MAX TEMP:  76;

TORRINGTON     FAIR      80  65  59 SE15      30.14F
6HR MIN TEMP:  65; 6HR MAX TEMP:  81; 6HR PCP:  0.02;

PINE BLUFFS    FAIR      79  59  50 S13G21    30.24F

$$



USA.gov is the U.S. government's official web portal to all federal, state and local government web resources and services.